Location: Rowland
(34.5359°N, 79.2929°W)
Time: 18:30:20
(UTC+00:00)

Transit 2A Rocket - Pass Details

Date: 05 October 2022
Orbit: 589 x 911 km, 66.7° (Epoch: 02 December)

Event Time Altitude Azimuth Distance (km) Brightness Sun altitude
Rises 19:23:05 0° 335° (NNW) 3,058 8.0 38.9°
Reaches altitude 10° 19:25:20 10° 338° (NNW) 2,185 7.3 38.6°
Maximum altitude 19:30:19 73° 63° (ENE) 795 5.5 37.8°
Drops below altitude 10° 19:35:48 10° 148° (SSE) 2,391 7.8 37.0°
Sets 19:38:21 0° 150° (SSE) 3,368 8.4 36.6°
